User: anonymous   Login
Location: Artiguedieu
(43.5000°N, 0.5454°E)
Time: 13:03:30
(UTC+00:00)
Language:

AIST 2D - Orbit

View from above orbital plane
View from above orbital plane
View from above satellite
View from above satellite

Ground track
Ground track

The orbit data is extracted from the following two-line orbital elements,

1 41465U 16026B   21267.19380706  .00002913  00000-0  83050-4 0  9992
2 41465  97.0912 147.8731 0011902  27.1902  72.3488 15.36783379302598
Epoch (UTC): 24 September 2021 04:39:04
Eccentricity: 0.0011902
inclination: 97.0912°
perigee height: 447 km
apogee height: 464 km
right ascension of ascending node: 147.8731°
argument of perigee: 27.1902°
revolutions per day: 15.36783379
mean anomaly at epoch: 72.3488°
orbit number at epoch: 30259

The dashed part of the orbit path shows where the satellite is in the earth's shadow,  

DLR